When you browse on this site, cookies collect data to enhance your experience and personalize the content and advertising you see.
Visit our Privacy Policy to learn more. By continuing to use the site, you agree to this use of cookies and data.
  • In Germany
  • List of Countries
  • For 7 days
  • Water Temperature
  • Satellite Maps
  • Weather Map
  • Weather Widgets
  • user-avatar
    Login

    Hourly Weather Mykhailivka

    Today, 18 November, Sunday

    Time Temperature Precipitation Wind Pressure Humidity
    00:00 -2°C° 0 mm 1 mps 740 mmHg 100%
    01:00 -2°C° 0 mm 1 mps 740 mmHg 100%
    02:00 -1°C° 0 mm 1 mps 739 mmHg 86%
    03:00 -1°C° 0 mm 1 mps 739 mmHg 94%
    04:00 -1°C° 0 mm 1 mps 738 mmHg 96%
    05:00 -1°C° 0 mm 1 mps 738 mmHg 97%
    06:00 -1°C° 0 mm 1 mps 737 mmHg 98%
    07:00 -1°C° 0 mm 1 mps 737 mmHg 98%
    08:00 -1°C° 0 mm 1 mps 736 mmHg 98%
    09:00 0°C° 0 mm 1 mps 736 mmHg 94%
    10:00 +1°C° 0 mm 1 mps 736 mmHg 89%
    11:00 +2°C° 0 mm 1 mps 735 mmHg 88%
    12:00 +2°C° 0 mm 1 mps 735 mmHg 89%
    13:00 +3°C° 0 mm 1 mps 734 mmHg 89%
    14:00 +3°C° 0 mm 1 mps 734 mmHg 70%
    15:00 +3°C° 0 mm 1 mps 734 mmHg 79%
    16:00 +2°C° 0 mm 1 mps 733 mmHg 84%
    17:00 +2°C° 0 mm 1 mps 733 mmHg 92%
    18:00 +1°C° 0 mm 1 mps 733 mmHg 94%
    19:00 +1°C° 0 mm 1 mps 732 mmHg 95%
    20:00 -1°C° 0 mm 2 mps 732 mmHg 95%
    21:00 -2°C° 0 mm 2 mps 732 mmHg 97%
    22:00 -2°C° 0 mm 2 mps 731 mmHg 99%
    23:00 -2°C° 0 mm 2 mps 731 mmHg 99%

    Tomorrow, 19 November, Monday

    Time Temperature Precipitation Wind Pressure Humidity
    00:00 0°C° 0 mm 1 mps 731 mmHg 98%
    01:00 0°C° 0 mm 1 mps 731 mmHg 99%
    02:00 0°C° 0 mm 1 mps 731 mmHg 100%
    03:00 -2°C° 0 mm 2 mps 731 mmHg 99%
    04:00 -2°C° 0 mm 2 mps 731 mmHg 98%
    05:00 -2°C° 0 mm 2 mps 730 mmHg 98%
    06:00 -2°C° 0.2 mm 2 mps 730 mmHg 99%
    07:00 -3°C° 0.5 mm 2 mps 730 mmHg 100%
    08:00 -3°C° 0.7 mm 2 mps 730 mmHg 100%
    09:00 -3°C° 0.6 mm 2 mps 730 mmHg 100%
    10:00 -2°C° 0.7 mm 2 mps 730 mmHg 100%
    11:00 -2°C° 0.9 mm 2 mps 730 mmHg 100%
    12:00 -2°C° 0.8 mm 2 mps 730 mmHg 100%
    13:00 -2°C° 0.7 mm 2 mps 730 mmHg 100%
    14:00 -2°C° 0.8 mm 3 mps 729 mmHg 100%
    15:00 -2°C° 0.8 mm 3 mps 729 mmHg 100%
    16:00 -2°C° 1.1 mm 3 mps 730 mmHg 100%
    17:00 -2°C° 1.8 mm 3 mps 730 mmHg 100%
    18:00 -3°C° 1.4 mm 4 mps 730 mmHg 100%
    19:00 -3°C° 0.9 mm 4 mps 730 mmHg 100%
    20:00 -3°C° 0.6 mm 4 mps 730 mmHg 100%
    21:00 -2°C° 0.5 mm 3 mps 731 mmHg 100%
    22:00 -2°C° 0.5 mm 3 mps 731 mmHg 100%
    23:00 -2°C° 0.4 mm 3 mps 731 mmHg 100%

    Day after tomorrow, 20 November, Tuesday

    Time Temperature Precipitation Wind Pressure Humidity
    00:00 -2°C° 0.3 mm 3 mps 732 mmHg 100%
    01:00 -2°C° 0.3 mm 3 mps 732 mmHg 100%
    02:00 -2°C° 0.2 mm 3 mps 732 mmHg 100%
    03:00 -2°C° 0.2 mm 3 mps 732 mmHg 100%
    04:00 -2°C° 0.2 mm 3 mps 732 mmHg 100%
    05:00 -2°C° 0.2 mm 2 mps 732 mmHg 100%
    06:00 -3°C° 0.1 mm 2 mps 732 mmHg 100%
    07:00 -3°C° 0.1 mm 2 mps 733 mmHg 100%
    08:00 -3°C° 0.1 mm 2 mps 733 mmHg 100%
    09:00 -2°C° 0 mm 2 mps 733 mmHg 100%
    10:00 0°C° 0 mm 1 mps 733 mmHg 100%
    11:00 -1°C° 0 mm 0 mps 733 mmHg 100%
    12:00 0°C° 0 mm 1 mps 733 mmHg 100%
    13:00 -2°C° 0 mm 2 mps 732 mmHg 100%
    14:00 -2°C° 0 mm 2 mps 732 mmHg 100%
    15:00 -2°C° 0 mm 3 mps 732 mmHg 100%
    16:00 -2°C° 0 mm 3 mps 732 mmHg 100%
    17:00 -4°C° 0 mm 3 mps 732 mmHg 100%
    18:00 -4°C° 0.1 mm 3 mps 732 mmHg 100%
    19:00 -4°C° 0.1 mm 4 mps 732 mmHg 100%
    20:00 -4°C° 0.1 mm 4 mps 732 mmHg 100%
    21:00 -4°C° 0.4 mm 4 mps 732 mmHg 100%
    22:00 -4°C° 0.8 mm 4 mps 731 mmHg 100%
    23:00 -4°C° 1.1 mm 4 mps 731 mmHg 100%

    21 November, Wednesday

    Time Temperature Precipitation Wind Pressure Humidity
    00:00 -4°C° 0.7 mm 4 mps 731 mmHg 100%
    01:00 -4°C° 0.3 mm 4 mps 731 mmHg 100%
    02:00 -4°C° 0.2 mm 4 mps 731 mmHg 100%
    03:00 -5°C° 0.2 mm 4 mps 731 mmHg 100%
    04:00 -5°C° 0.4 mm 4 mps 731 mmHg 100%
    05:00 -5°C° 0.2 mm 4 mps 731 mmHg 100%
    06:00 -5°C° 0.2 mm 3 mps 730 mmHg 100%
    07:00 -5°C° 0.1 mm 3 mps 731 mmHg 100%
    08:00 -5°C° 0.1 mm 3 mps 731 mmHg 100%
    09:00 -5°C° 0.1 mm 3 mps 731 mmHg 100%
    10:00 -5°C° 0.1 mm 3 mps 731 mmHg 100%
    11:00 -4°C° 0.2 mm 3 mps 731 mmHg 100%
    12:00 -4°C° 0.1 mm 3 mps 732 mmHg 100%
    13:00 -4°C° 0.1 mm 3 mps 731 mmHg 100%
    14:00 -4°C° 0.1 mm 3 mps 731 mmHg 100%
    15:00 -4°C° 0.1 mm 3 mps 732 mmHg 100%
    16:00 -3°C° 0.1 mm 2 mps 732 mmHg 100%
    17:00 -3°C° 0.1 mm 2 mps 732 mmHg 100%
    18:00 -4°C° 0 mm 2 mps 732 mmHg 100%
    19:00 -4°C° 0 mm 2 mps 732 mmHg 100%
    20:00 -2°C° 0.1 mm 1 mps 732 mmHg 100%
    21:00 -2°C° 0.1 mm 1 mps 733 mmHg 100%
    22:00 -3°C° 0 mm 1 mps 733 mmHg 100%
    23:00 -3°C° 0 mm 1 mps 733 mmHg 100%

    22 November, Thursday

    Time Temperature Precipitation Wind Pressure Humidity
    00:00 -3°C° 0 mm 1 mps 734 mmHg 100%
    01:00 -4°C° 0 mm 1 mps 734 mmHg 100%
    02:00 -5°C° 0 mm 0 mps 734 mmHg 100%
    03:00 -5°C° 0 mm 0 mps 734 mmHg 100%
    04:00 -6°C° 0 mm 0 mps 734 mmHg 100%
    05:00 -6°C° 0 mm 0 mps 734 mmHg 100%
    06:00 -6°C° 0 mm 0 mps 734 mmHg 100%
    07:00 -6°C° 0 mm 0 mps 735 mmHg 100%
    08:00 -6°C° 0 mm 0 mps 735 mmHg 100%
    09:00 -6°C° 0 mm 0 mps 735 mmHg 100%
    10:00 -6°C° 0 mm 0 mps 736 mmHg 100%
    11:00 -5°C° 0 mm 0 mps 736 mmHg 100%
    12:00 -4°C° 0 mm 0 mps 736 mmHg 100%
    13:00 -4°C° 0 mm 0 mps 736 mmHg 100%
    14:00 -3°C° 0 mm 1 mps 736 mmHg 100%

    23 November, Friday

    Time Temperature Precipitation Wind Pressure Humidity
    Show more